Orbital Elements at Epoch 2459200.5 (2020-Dec-17.0) TDB
Reference: JPL 24 (heliocentric ecliptic J2000)
Element | Value | Uncertainty (1-sigma) | Units |
e | .1366780021241291 | 3.6203e-08 | |
a | 3.21099418850019 | 2.1593e-08 | au |
q | 2.772121917983795 | 1.2063e-07 | au |
i | 5.913213689152382 | 4.5534e-06 | deg |
node | 133.0099381627297 | 4.3651e-05 | deg |
peri | 281.3240626284816 | 4.9435e-05 | deg |
M | 37.29564697727192 | 2.0046e-05 | deg |
tp | 2458982.772467477931 (2020-May-13.27246748) | 0.00011707 | TDB |
period | 2101.637002187169 5.75 | 2.1199e-05 5.804e-08 | d yr |
n | .171295042685939 | 1.7279e-09 | deg/d |
Q | 3.649866459016585 | 2.4544e-08 | au |
|
| | Orbit Determination Parameters
Additional Information
|